When you browse on this site, cookies collect data to enhance your experience and personalize the content and advertising you see.
Visit our Privacy Policy to learn more. By continuing to use the site, you agree to this use of cookies and data.
EN

Hourly Weather San Pedro Sula

Today, 11 August, Tuesday

Time Temperature Precipitation Wind Pressure Humidity
00:00 +25°C° 0 mm 1 mps 745 mmHg 95%
01:00 +24°C° 0 mm 1 mps 745 mmHg 95%
02:00 +24°C° 0 mm 1 mps 744 mmHg 95%
03:00 +24°C° 0 mm 1 mps 744 mmHg 95%
04:00 +24°C° 0 mm 1 mps 744 mmHg 95%
05:00 +24°C° 0 mm 1 mps 744 mmHg 95%
06:00 +22°C° 0 mm 0 mps 744 mmHg 95%
07:00 +24°C° 0 mm 0 mps 745 mmHg 87%
08:00 +26°C° 0 mm 0 mps 745 mmHg 80%
09:00 +28°C° 0 mm 0 mps 745 mmHg 72%
10:00 +31°C° 0 mm 1 mps 745 mmHg 68%
11:00 +32°C° 0 mm 1 mps 745 mmHg 65%
12:00 +34°C° 0 mm 2 mps 745 mmHg 61%
13:00 +34°C° 0.2 mm 2 mps 744 mmHg 64%
14:00 +33°C° 0.2 mm 3 mps 744 mmHg 67%
15:00 +33°C° 0.2 mm 3 mps 743 mmHg 69%
16:00 +30°C° 0.7 mm 3 mps 743 mmHg 77%
17:00 +29°C° 0.7 mm 2 mps 743 mmHg 84%
18:00 +28°C° 0.7 mm 2 mps 744 mmHg 91%
19:00 +27°C° 0.6 mm 2 mps 744 mmHg 92%
20:00 +26°C° 0.6 mm 1 mps 745 mmHg 94%
21:00 +26°C° 0.6 mm 1 mps 745 mmHg 95%
22:00 +26°C° 0.5 mm 1 mps 745 mmHg 96%
23:00 +26°C° 0.5 mm 1 mps 745 mmHg 96%

Tomorrow, 12 August, Wednesday

Time Temperature Precipitation Wind Pressure Humidity
00:00 +23°C° 0.5 mm 0 mps 745 mmHg 96%
01:00 +24°C° 0.2 mm 0 mps 744 mmHg 96%
02:00 +24°C° 0.2 mm 0 mps 744 mmHg 96%
03:00 +24°C° 0.2 mm 0 mps 744 mmHg 96%
04:00 +24°C° 0.2 mm 0 mps 744 mmHg 96%
05:00 +24°C° 0.2 mm 0 mps 744 mmHg 96%
06:00 +23°C° 0.2 mm 0 mps 744 mmHg 96%
07:00 +25°C° 0.1 mm 0 mps 744 mmHg 88%
08:00 +29°C° 0.1 mm 1 mps 745 mmHg 81%
09:00 +30°C° 0.1 mm 1 mps 745 mmHg 73%
10:00 +31°C° 0.1 mm 1 mps 745 mmHg 69%
11:00 +32°C° 0.1 mm 2 mps 745 mmHg 65%
12:00 +34°C° 0.1 mm 2 mps 744 mmHg 61%
13:00 +32°C° 0.4 mm 2 mps 744 mmHg 64%
14:00 +33°C° 0.4 mm 3 mps 743 mmHg 68%
15:00 +31°C° 0.4 mm 3 mps 743 mmHg 71%
16:00 +30°C° 0.4 mm 2 mps 743 mmHg 78%
17:00 +29°C° 0.4 mm 2 mps 743 mmHg 84%
18:00 +27°C° 0.4 mm 2 mps 743 mmHg 91%
19:00 +27°C° 0.3 mm 1 mps 744 mmHg 92%
20:00 +26°C° 0.3 mm 1 mps 744 mmHg 94%
21:00 +25°C° 0.3 mm 1 mps 745 mmHg 96%
22:00 +25°C° 0.1 mm 1 mps 745 mmHg 95%
23:00 +23°C° 0.1 mm 0 mps 745 mmHg 95%

Day after tomorrow, 13 August, Thursday

Time Temperature Precipitation Wind Pressure Humidity
00:00 +23°C° 0.1 mm 0 mps 745 mmHg 95%
01:00 +23°C° 0.1 mm 0 mps 744 mmHg 95%
02:00 +23°C° 0.1 mm 0 mps 744 mmHg 95%
03:00 +23°C° 0.1 mm 0 mps 744 mmHg 96%
04:00 +23°C° 0 mm 0 mps 744 mmHg 96%
05:00 +23°C° 0 mm 0 mps 744 mmHg 96%
06:00 +24°C° 0 mm 1 mps 744 mmHg 96%
07:00 +26°C° 0 mm 1 mps 745 mmHg 90%
08:00 +28°C° 0 mm 1 mps 745 mmHg 84%
09:00 +30°C° 0 mm 1 mps 745 mmHg 78%
10:00 +31°C° 0.1 mm 1 mps 745 mmHg 70%
11:00 +32°C° 0.1 mm 1 mps 744 mmHg 62%
12:00 +34°C° 0.1 mm 2 mps 744 mmHg 54%
13:00 +34°C° 0 mm 2 mps 743 mmHg 55%
14:00 +34°C° 0 mm 3 mps 743 mmHg 56%
15:00 +34°C° 0 mm 3 mps 742 mmHg 57%
16:00 +31°C° 0 mm 3 mps 742 mmHg 65%
17:00 +29°C° 0 mm 2 mps 743 mmHg 73%
18:00 +28°C° 0 mm 2 mps 743 mmHg 81%
19:00 +27°C° 0 mm 1 mps 743 mmHg 85%
20:00 +26°C° 0 mm 1 mps 744 mmHg 88%
21:00 +25°C° 0 mm 1 mps 744 mmHg 92%
22:00 +25°C° 0.2 mm 1 mps 744 mmHg 93%
23:00 +23°C° 0.2 mm 0 mps 744 mmHg 94%

14 August, Friday

Time Temperature Precipitation Wind Pressure Humidity
00:00 +23°C° 0.2 mm 0 mps 744 mmHg 94%
01:00 +23°C° 0 mm 0 mps 744 mmHg 94%
02:00 +23°C° 0 mm 0 mps 743 mmHg 94%
03:00 +23°C° 0 mm 0 mps 743 mmHg 93%
04:00 +23°C° 0 mm 0 mps 743 mmHg 93%
05:00 +23°C° 0 mm 0 mps 743 mmHg 93%
06:00 +23°C° 0 mm 0 mps 744 mmHg 93%
07:00 +25°C° 0 mm 0 mps 744 mmHg 85%
08:00 +26°C° 0 mm 0 mps 745 mmHg 76%
09:00 +28°C° 0 mm 0 mps 745 mmHg 68%
10:00 +31°C° 0 mm 1 mps 745 mmHg 63%
11:00 +32°C° 0 mm 1 mps 744 mmHg 58%
12:00 +34°C° 0 mm 2 mps 744 mmHg 53%
13:00 +32°C° 0.1 mm 2 mps 743 mmHg 58%
14:00 +33°C° 0.1 mm 3 mps 743 mmHg 63%
15:00 +31°C° 0.1 mm 3 mps 742 mmHg 68%
16:00 +30°C° 0.5 mm 2 mps 743 mmHg 75%
17:00 +28°C° 0.5 mm 2 mps 743 mmHg 82%
18:00 +27°C° 0.5 mm 2 mps 743 mmHg 90%
19:00 +26°C° 0.1 mm 1 mps 743 mmHg 91%
20:00 +26°C° 0.1 mm 1 mps 744 mmHg 93%
21:00 +26°C° 0.1 mm 1 mps 744 mmHg 94%
22:00 +26°C° 0.2 mm 1 mps 744 mmHg 95%
23:00 +23°C° 0.2 mm 0 mps 744 mmHg 95%

15 August, Saturday

Time Temperature Precipitation Wind Pressure Humidity
00:00 +23°C° 0.2 mm 0 mps 744 mmHg 95%
01:00 +23°C° 0.1 mm 0 mps 744 mmHg 96%
02:00 +23°C° 0.1 mm 0 mps 743 mmHg 96%
03:00 +23°C° 0.1 mm 0 mps 743 mmHg 96%
04:00 +23°C° 0.1 mm 0 mps 743 mmHg 96%
05:00 +23°C° 0.1 mm 0 mps 743 mmHg 96%
06:00 +23°C° 0.1 mm 0 mps 743 mmHg 96%
07:00 +24°C° 0 mm 0 mps 744 mmHg 89%
08:00 +26°C° 0 mm 0 mps 744 mmHg 83%
09:00 +28°C° 0 mm 0 mps 745 mmHg 76%
10:00 +31°C° 0.2 mm 1 mps 744 mmHg 72%
11:00 +32°C° 0.2 mm 1 mps 744 mmHg 67%
12:00 +32°C° 0.2 mm 1 mps 744 mmHg 63%
13:00 +31°C° 1.3 mm 1 mps 743 mmHg 71%
14:00 +30°C° 1.3 mm 1 mps 743 mmHg 79%
15:00 +28°C° 1.3 mm 1 mps 743 mmHg 87%
16:00 +27°C° 1.8 mm 1 mps 743 mmHg 89%
17:00 +27°C° 1.8 mm 1 mps 743 mmHg 92%
18:00 +26°C° 1.8 mm 1 mps 743 mmHg 94%
19:00 +25°C° 0.9 mm 1 mps 744 mmHg 95%
20:00 +25°C° 0.9 mm 1 mps 744 mmHg 96%
21:00 +25°C° 0.9 mm 1 mps 745 mmHg 96%
22:00 +25°C° 0 mm 1 mps 745 mmHg 96%
23:00 +24°C° 0 mm 1 mps 745 mmHg 96%

16 August, Sunday

Time Temperature Precipitation Wind Pressure Humidity
00:00 +24°C° 0 mm 1 mps 745 mmHg 95%
01:00 +24°C° 0 mm 1 mps 744 mmHg 95%
02:00 +24°C° 0 mm 1 mps 744 mmHg 95%
03:00 +24°C° 0 mm 1 mps 743 mmHg 94%
04:00 +24°C° 0 mm 1 mps 744 mmHg 94%
05:00 +24°C° 0 mm 1 mps 744 mmHg 94%
06:00 +22°C° 0 mm 0 mps 744 mmHg 94%
07:00 +25°C° 0 mm 1 mps 744 mmHg 87%
08:00 +27°C° 0 mm 1 mps 745 mmHg 80%
09:00 +29°C° 0 mm 1 mps 745 mmHg 73%
10:00 +30°C° 0 mm 1 mps 745 mmHg 66%
11:00 +32°C° 0 mm 1 mps 744 mmHg 60%
12:00 +33°C° 0 mm 1 mps 744 mmHg 54%
13:00 +33°C° 0.2 mm 1 mps 744 mmHg 59%
14:00 +32°C° 0.2 mm 2 mps 743 mmHg 64%
15:00 +32°C° 0.2 mm 2 mps 742 mmHg 68%
16:00 +30°C° 0.7 mm 2 mps 743 mmHg 75%
17:00 +29°C° 0.7 mm 2 mps 743 mmHg 82%
18:00 +28°C° 0.7 mm 2 mps 743 mmHg 89%
19:00 +27°C° 0.7 mm 2 mps 744 mmHg 90%
20:00 +26°C° 0.7 mm 1 mps 744 mmHg 92%
21:00 +26°C° 0.7 mm 1 mps 744 mmHg 94%
22:00 +26°C° 0.7 mm 1 mps 744 mmHg 94%
23:00 +26°C° 0.7 mm 1 mps 744 mmHg 94%
Show more